• In Germany
  • List of Countries
  • For 7 days
  • Water Temperature
  • Satellite Maps
  • Weather Map
  • Weather Widgets
  • user-avatar
    Login

    Hourly Weather Bregenz

    Today, 23 July, Sunday

    Time Temperature Precipitation Wind Pressure Humidity
    00:00 +14°C° 0.9 mm 1 mps 648 mmHg 86%
    01:00 +14°C° 0.9 mm 1 mps 648 mmHg 88%
    02:00 +13°C° 0.3 mm 1 mps 648 mmHg 89%
    03:00 +13°C° 0.3 mm 1 mps 648 mmHg 90%
    04:00 +12°C° 0.3 mm 1 mps 648 mmHg 91%
    05:00 +13°C° 0.1 mm 1 mps 648 mmHg 89%
    06:00 +14°C° 0.1 mm 1 mps 648 mmHg 88%
    07:00 +14°C° 0.1 mm 1 mps 649 mmHg 87%
    08:00 +15°C° 0.1 mm 2 mps 649 mmHg 85%
    09:00 +15°C° 0.1 mm 2 mps 649 mmHg 82%
    10:00 +16°C° 0.1 mm 2 mps 649 mmHg 80%
    11:00 +16°C° 0.2 mm 2 mps 649 mmHg 81%
    12:00 +16°C° 0.2 mm 2 mps 649 mmHg 82%
    13:00 +15°C° 0.2 mm 2 mps 649 mmHg 84%
    14:00 +15°C° 0.2 mm 2 mps 649 mmHg 83%
    15:00 +15°C° 0.2 mm 2 mps 649 mmHg 83%
    16:00 +15°C° 0.2 mm 2 mps 649 mmHg 82%
    17:00 +15°C° 0.1 mm 2 mps 649 mmHg 84%
    18:00 +15°C° 0.1 mm 1 mps 649 mmHg 85%
    19:00 +15°C° 0.1 mm 1 mps 648 mmHg 87%
    20:00 +14°C° 0 mm 1 mps 648 mmHg 89%
    21:00 +12°C° 0 mm 1 mps 648 mmHg 91%
    22:00 +11°C° 0 mm 1 mps 647 mmHg 94%
    23:00 +11°C° 0.1 mm 1 mps 647 mmHg 94%

    Tomorrow, 24 July, Monday

    Time Temperature Precipitation Wind Pressure Humidity
    00:00 +11°C° 0.1 mm 1 mps 646 mmHg 94%
    01:00 +11°C° 0.1 mm 1 mps 646 mmHg 94%
    02:00 +10°C° 0.2 mm 1 mps 645 mmHg 94%
    03:00 +10°C° 0.2 mm 1 mps 645 mmHg 94%
    04:00 +10°C° 0.2 mm 1 mps 644 mmHg 95%
    05:00 +11°C° 0.1 mm 1 mps 644 mmHg 92%
    06:00 +12°C° 0.1 mm 1 mps 644 mmHg 89%
    07:00 +12°C° 0.1 mm 0 mps 644 mmHg 86%
    08:00 +14°C° 0.5 mm 1 mps 644 mmHg 85%
    09:00 +14°C° 0.5 mm 2 mps 644 mmHg 84%
    10:00 +14°C° 0.5 mm 3 mps 644 mmHg 82%
    11:00 +13°C° 0.7 mm 3 mps 643 mmHg 85%
    12:00 +13°C° 0.7 mm 3 mps 643 mmHg 87%
    13:00 +13°C° 0.7 mm 3 mps 643 mmHg 89%
    14:00 +12°C° 0.9 mm 3 mps 643 mmHg 89%
    15:00 +12°C° 0.9 mm 4 mps 643 mmHg 89%
    16:00 +11°C° 0.9 mm 4 mps 643 mmHg 89%
    17:00 +10°C° 0.6 mm 4 mps 643 mmHg 91%
    18:00 +10°C° 0.6 mm 3 mps 643 mmHg 92%
    19:00 +9°C° 0.6 mm 3 mps 643 mmHg 93%
    20:00 +9°C° 0.2 mm 3 mps 643 mmHg 94%
    21:00 +8°C° 0.2 mm 3 mps 643 mmHg 95%
    22:00 +7°C° 0.2 mm 2 mps 643 mmHg 96%
    23:00 +7°C° 0.1 mm 2 mps 643 mmHg 96%

    Day after tomorrow, 25 July, Tuesday

    Time Temperature Precipitation Wind Pressure Humidity
    00:00 +6°C° 0.1 mm 2 mps 642 mmHg 96%
    01:00 +6°C° 0.1 mm 2 mps 642 mmHg 96%
    02:00 +6°C° 0.1 mm 2 mps 642 mmHg 96%
    03:00 +6°C° 0.1 mm 2 mps 642 mmHg 96%
    04:00 +5°C° 0.1 mm 3 mps 642 mmHg 95%
    05:00 +5°C° 0.2 mm 3 mps 642 mmHg 95%
    06:00 +7°C° 0.2 mm 3 mps 641 mmHg 95%
    07:00 +7°C° 0.2 mm 3 mps 641 mmHg 94%
    08:00 +7°C° 0.3 mm 3 mps 641 mmHg 91%
    09:00 +8°C° 0.3 mm 3 mps 641 mmHg 88%
    10:00 +9°C° 0.3 mm 3 mps 641 mmHg 85%
    11:00 +8°C° 0.4 mm 4 mps 641 mmHg 84%
    12:00 +8°C° 0.4 mm 4 mps 641 mmHg 83%
    13:00 +8°C° 0.4 mm 4 mps 641 mmHg 82%
    14:00 +8°C° 0.4 mm 4 mps 641 mmHg 83%
    15:00 +8°C° 0.4 mm 4 mps 641 mmHg 84%
    16:00 +8°C° 0.4 mm 4 mps 641 mmHg 85%
    17:00 +8°C° 0.1 mm 3 mps 641 mmHg 86%
    18:00 +8°C° 0.1 mm 3 mps 641 mmHg 87%
    19:00 +8°C° 0.1 mm 3 mps 641 mmHg 88%
    20:00 +7°C° 0.1 mm 3 mps 641 mmHg 89%
    21:00 +7°C° 0.1 mm 2 mps 641 mmHg 91%
    22:00 +6°C° 0.1 mm 2 mps 641 mmHg 92%
    23:00 +6°C° 0.4 mm 2 mps 641 mmHg 93%

    26 July, Wednesday

    Time Temperature Precipitation Wind Pressure Humidity
    00:00 +6°C° 0.4 mm 2 mps 641 mmHg 93%
    01:00 +6°C° 0.4 mm 2 mps 641 mmHg 93%
    02:00 +6°C° 0.8 mm 2 mps 641 mmHg 94%
    03:00 +6°C° 0.8 mm 2 mps 640 mmHg 95%
    04:00 +5°C° 0.8 mm 2 mps 640 mmHg 96%
    05:00 +6°C° 0.8 mm 2 mps 641 mmHg 95%
    06:00 +6°C° 0.8 mm 2 mps 641 mmHg 95%
    07:00 +6°C° 0.8 mm 2 mps 641 mmHg 95%
    08:00 +7°C° 0.6 mm 2 mps 641 mmHg 94%
    09:00 +8°C° 0.6 mm 2 mps 641 mmHg 93%
    10:00 +8°C° 0.6 mm 2 mps 642 mmHg 91%
    11:00 +9°C° 0.4 mm 2 mps 642 mmHg 87%
    12:00 +10°C° 0.4 mm 2 mps 643 mmHg 83%
    13:00 +12°C° 0.4 mm 2 mps 643 mmHg 79%
    14:00 +12°C° 0.5 mm 2 mps 643 mmHg 82%
    15:00 +11°C° 0.5 mm 3 mps 643 mmHg 84%
    16:00 +11°C° 0.5 mm 3 mps 643 mmHg 86%
    17:00 +10°C° 0.6 mm 2 mps 644 mmHg 89%
    18:00 +10°C° 0.6 mm 2 mps 644 mmHg 92%
    19:00 +9°C° 0.6 mm 2 mps 644 mmHg 96%
    20:00 +10°C° 0.6 mm 1 mps 644 mmHg 96%
    21:00 +9°C° 0.6 mm 1 mps 645 mmHg 97%
    22:00 +9°C° 0.6 mm 1 mps 645 mmHg 97%
    23:00 +9°C° 0.2 mm 1 mps 645 mmHg 97%

    27 July, Thursday

    Time Temperature Precipitation Wind Pressure Humidity
    00:00 +9°C° 0.2 mm 1 mps 645 mmHg 97%
    01:00 +9°C° 0.2 mm 1 mps 645 mmHg 97%
    02:00 +8°C° 0 mm 1 mps 645 mmHg 97%
    03:00 +8°C° 0 mm 1 mps 645 mmHg 97%
    04:00 +8°C° 0 mm 1 mps 645 mmHg 97%
    05:00 +9°C° 0 mm 1 mps 646 mmHg 96%
    06:00 +9°C° 0 mm 1 mps 646 mmHg 95%
    07:00 +10°C° 0 mm 1 mps 646 mmHg 94%
    08:00 +12°C° 0 mm 1 mps 647 mmHg 85%
    09:00 +14°C° 0 mm 1 mps 647 mmHg 76%
    10:00 +16°C° 0 mm 1 mps 648 mmHg 67%
    11:00 +18°C° 0 mm 1 mps 648 mmHg 64%
    12:00 +19°C° 0 mm 1 mps 648 mmHg 60%
    13:00 +19°C° 0 mm 2 mps 648 mmHg 57%
    14:00 +19°C° 0 mm 2 mps 648 mmHg 57%
    15:00 +19°C° 0 mm 2 mps 648 mmHg 57%
    16:00 +20°C° 0 mm 1 mps 648 mmHg 57%
    17:00 +19°C° 0 mm 1 mps 648 mmHg 64%
    18:00 +18°C° 0 mm 1 mps 648 mmHg 71%
    19:00 +16°C° 0 mm 1 mps 648 mmHg 78%
    20:00 +14°C° 0 mm 1 mps 648 mmHg 82%
    21:00 +12°C° 0 mm 1 mps 648 mmHg 86%
    22:00 +11°C° 0 mm 1 mps 648 mmHg 91%
    23:00 +11°C° 0 mm 1 mps 648 mmHg 90%

    28 July, Friday

    Time Temperature Precipitation Wind Pressure Humidity
    00:00 +10°C° 0 mm 1 mps 648 mmHg 90%
    01:00 +10°C° 0 mm 1 mps 647 mmHg 89%
    02:00 +10°C° 0 mm 1 mps 647 mmHg 87%
    03:00 +9°C° 0 mm 1 mps 647 mmHg 86%
    04:00 +9°C° 0 mm 1 mps 647 mmHg 84%
    05:00 +11°C° 0 mm 1 mps 648 mmHg 80%
    06:00 +12°C° 0 mm 1 mps 648 mmHg 75%
    07:00 +14°C° 0 mm 1 mps 649 mmHg 71%
    08:00 +16°C° 0 mm 1 mps 649 mmHg 65%
    09:00 +19°C° 0 mm 1 mps 650 mmHg 60%
    10:00 +21°C° 0 mm 1 mps 651 mmHg 54%
    11:00 +21°C° 0 mm 1 mps 651 mmHg 52%
    12:00 +22°C° 0 mm 1 mps 651 mmHg 51%
    13:00 +23°C° 0 mm 2 mps 651 mmHg 49%
    14:00 +23°C° 0 mm 2 mps 651 mmHg 51%
    15:00 +23°C° 0 mm 2 mps 651 mmHg 53%
    16:00 +23°C° 0 mm 2 mps 651 mmHg 55%
    17:00 +21°C° 0 mm 2 mps 650 mmHg 63%
    18:00 +20°C° 0 mm 1 mps 650 mmHg 71%
    19:00 +19°C° 0 mm 1 mps 650 mmHg 79%
    20:00 +16°C° 0 mm 1 mps 650 mmHg 83%
    21:00 +15°C° 0 mm 1 mps 650 mmHg 87%
    22:00 +13°C° 0 mm 1 mps 649 mmHg 92%
    23:00 +13°C° 0 mm 1 mps 649 mmHg 91%
    Show more